Regional Weather Roundup
Issued by NWS Huntsville, AL

Home | Current Version | Previous Version | Text Only | Print | Product List | Glossary On
Versions: 1 2 3 4 5 6 7 8 9 10 11 12 13 14 15 16 17 18 19 20 21 22 23 24 25 26 27 28 29 30 31 32 33 34 35 36 37 38 39 40 41 42 43 44 45 46 47 48 49 50
000
ASUS44 KHUN 200310
RWRHUN

WEATHER ROUNDUP FOR THE TENNESSEE VALLEY
NATIONAL WEATHER SERVICE HUNTSVILLE AL
1000 PM CDT THU OCT 19 2017

ALZ001>004-200400-
NORTHWEST ALABAMA

CITY           SKY/WX    TMP DP  RH WIND       PRES   REMARKS
COURTLAND HCN    N/A     52 N/A N/A CALM        N/A
RUSSELLVILLE     N/A     50 N/A N/A MISG        N/A
SHOALS AIRPORT CLEAR     50  46  86 CALM      30.25R
SHOALS TVA RES   N/A     52 N/A N/A MISG        N/A
$$

ALZ005>007-016-200400-
NORTH CENTRAL ALABAMA

CITY           SKY/WX    TMP DP  RH WIND       PRES   REMARKS
CULLMAN AG STN   N/A     50 N/A N/A CALM        N/A
DECATUR AP     CLEAR     48  48 100 CALM      30.25S
HUNTSVILLE AP  CLEAR     56  53  90 E5        30.25R
MERIDIANVILLE  CLEAR     50  48  93 CALM      30.25F
REDSTONE ARSN  CLEAR    N/A N/A N/A CALM      30.24S
VINEMONT AP    FAIR      49  47  95 CALM      30.28R
$$

ALZ008>010-200400-
NORTHEAST ALABAMA

CITY           SKY/WX    TMP DP  RH WIND       PRES   REMARKS
ALBERTVILLE    PTCLDY    54  54 100 E5        30.26R
FORT PAYNE     CLEAR     46  45  93 CALM      30.26S
SCOTTSBORO AP  CLEAR     50  50 100 CALM      30.27S
SCOTTSBORO HCN   N/A     48 N/A N/A MISG        N/A
VALLEY HEAD      N/A     46 N/A N/A MISG        N/A
$$

TNZ076-096-097-200400-
SOUTHEASTERN MIDDLE TENNESSEE

CITY           SKY/WX    TMP DP  RH WIND       PRES   REMARKS
TULLAHOMA      CLEAR     46  43  87 CALM      30.27S
WINCHESTER     CLEAR     46  46 100 CALM        N/A
$$

...SURROUNDING SITES...

CITY           SKY/WX    TMP DP  RH WIND       PRES   REMARKS
ATLANTA        CLEAR     60  46  59 CALM      30.26R
ANNISTON       CLEAR     54  52  93 CALM      30.26R
BIRMINGHAM     CLEAR     56  49  77 CALM      30.27R
CHATTANOOGA    CLEAR     51  48  89 CALM      30.27R
CORINTH        FAIR      52  50  93 CALM      30.23R FOG
DALTON         CLEAR     48  48 100 CALM      30.28S
GADSDEN        CLEAR     48  48 100 CALM      30.26S FOG
GOLDEN TRNGL   CLEAR     57  52  83 CALM      30.23R
HALEYVILLE     FAIR      51  51 100 CALM      30.27R FOG
JACKSON TN     CLEAR     52  51  97 CALM      30.22R
MEMPHIS        PTCLDY    61  51  70 CALM      30.21R
NASHVILLE      CLEAR     56  49  77 S5        30.25R
OXFORD MS      FAIR      52  50  93 CALM      30.24R
ROME           CLEAR     51  50  96 CALM      30.26R
SAVANNAH       CLEAR     50  50 100 CALM      30.22S
SELMER         CLEAR     55  50  82 CALM      30.22S
TUPELO         CLEAR     53  50  89 N3        30.22R
TUSCALOOSA     CLEAR     57  57 100 CALM      30.23R
$$

...GULF COAST WEATHER...

CITY           SKY/WX    TMP DP  RH WIND       PRES   REMARKS
GULFPORT       PTCLDY    70  63  78 E6        30.17R
PASCAGOULA     PTCLDY    63  59  87 NE3       30.18R
MOBILE         CLOUDY    67  60  78 NE7       30.20R
GULF SHORES    CLEAR     66  59  78 NE5       30.18S
PENSACOLA      CLEAR     67  58  72 N6        30.18R
DESTIN         CLEAR     75  60  59 NE6       30.18R
PANAMA CITY    CLEAR     71  59  64 NE5       30.17R
APPALACHICOLA  CLEAR     70  64  81 NE6       30.16R
$$




USA.gov is the U.S. government's official web portal to all federal, state and local government web resources and services.